Location: ?????
(30.2541°N, 31.0910°E)
Time: 03:20:52
(UTC+00:00)

FALCON 9 R/B - Pass Details

Date: 27 September 2022
Orbit: 289 x 9944 km, 34.5° (Epoch: 30 November)

Event Time Altitude Azimuth Distance (km) Brightness Sun altitude
Exits shadow 03:03:03 17° 280° (W) 816 1.6 -10.2°
Maximum altitude 03:04:30 63° 201° (SSW) 332 0.1 -9.9°
Drops below altitude 10° 03:07:06 10° 117° (ESE) 1,396 4.4 -9.4°
Sets 03:09:46 0° 115° (ESE) 2,736 6.1 -8.8°
